Regional Weather Roundup
Issued by NWS

Home | Current Version | Previous Version | Text Only | Print | Product List | Glossary On
Versions: 1 2 3 4 5 6 7 8 9 10 11 12 13 14 15 16 17 18 19 20 21 22 23 24 25 26 27 28 29 30 31 32 33 34 35 36 37 38 39 40 41 42 43 44 45 46 47 48 49 50
000
ASUS44 KOUN 040610
RWROK

WEATHER ROUNDUP FOR OKLAHOMA
NATIONAL WEATHER SERVICE NORMAN OK
100 AM CDT TUE AUG 04 2015

NOTE: "FAIR" INDICATES FEW OR NO CLOUDS BELOW 12,000 FEET WITH NO
      SIGNIFICANT WEATHER AND/OR OBSTRUCTIONS TO VISIBILITY.

OKZ001>007-009>012-014-015-017-040700-
NORTHWEST OKLAHOMA AND THE PANHANDLE

CITY           SKY/WX    TMP DP  RH WIND       PRES   REMARKS
GAGE           LGT RAIN  73  70  90 S12       29.98S
6HR MIN TEMP:  73; 6HR MAX TEMP:  86; 6HR PCP:  0.10;

GUYMON         MOCLDY    66  61  84 W12       29.97F
ENID/WOODRING    N/A     73  68  83 SE3       29.92S
$$

OKZ016-021>023-033>039-044-045-040700-
SOUTHWEST OKLAHOMA

CITY           SKY/WX    TMP DP  RH WIND       PRES   REMARKS
LAWTON/REGL    CLOUDY    80  67  64 E6        29.91S
6HR MIN TEMP:  79; 6HR MAX TEMP:  89;

LAWTON/FT SILL MOCLDY    78  69  71 SE6       29.91R
FREDERICK      MOCLDY    78  72  81 E7        29.88S
CLINTON        CLOUDY    78  68  71 SE13      29.96S
HOBART         CLOUDY    76  71  85 SE7       29.93F
ALTUS AFB      MOCLDY    78  69  72 E7        29.91R
$$

OKZ018>020-024>031-040700-
CENTRAL OKLAHOMA

CITY           SKY/WX    TMP DP  RH WIND       PRES   REMARKS
OKLAHOMA CITY  MOCLDY    74  67  78 E7        29.93S
6HR MIN TEMP:  74; 6HR MAX TEMP:  84;

OKC/WILEY POST MOCLDY    80  65  59 SE8       29.93F
OKC/TINKER AFB PTCLDY    75  70  84 E6        29.92S
STILLWATER     MOCLDY    78  70  76 SE7       29.93F
GUTHRIE        PTCLDY    78  70  76 SE7       29.92F
$$

OKZ008-013-054>072-040700-
NORTHEAST OKLAHOMA

CITY           SKY/WX    TMP DP  RH WIND       PRES   REMARKS
TULSA          MOCLDY    78  70  76 SE6       29.91F
6HR MIN TEMP:  77; 6HR MAX TEMP:  92;

TULSA/JONES    PTCLDY    73  71  93 CALM      29.92F
PONCA CITY     MOCLDY    78  68  71 SE9       29.92F
BARTLESVILLE   MOCLDY    70  70 100 CALM      29.94F
MUSKOGEE       CLEAR     75  72  90 CALM      29.93F
$$

OKZ032-040>043-046>053-073>077-040700-
SOUTH CENTRAL/SOUTHEAST OKLAHOMA

CITY           SKY/WX    TMP DP  RH WIND       PRES   REMARKS
ARDMORE/DWNTWN MOCLDY    79  64  61 CALM      29.91S
MCALESTER      CLEAR     79  67  66 E6        29.93S
$$



USA.gov is the U.S. government's official web portal to all federal, state and local government web resources and services.